DAMPE

Last updated on Sat Apr 13 2024 01:03:20 GMT+0100 (British Summer Time)

1 41173U 15078A 24103.53569340 .00001950 00000+0 76658-4 0 9992 2 41173 97.4294 97.3602 0013601 22.0517 338.1304 15.26813106462960
UTC large
Height (km)
Speed (km/s)
/
Latitude / Longitude
Inclination (degrees)
Orbital Period (minutes)
Azimuth
Elevation
Range (km)
Doppler Factor

Next 0 passes for location: London (51.5072 / 0.1276)

Sorry there are no passes over London.